Time,TemperatureF,DewpointF,PressureIn,WindDirection,WindDirectionDegrees,WindSpeedMPH,WindSpeedGustMPH,Humidity,HourlyPrecipIn,Conditions,Clouds,dailyrainin,SoftwareType,DateUTC
2013-04-14 00:23:00,35.2,21.4,29.92,WSW,248,2.2,2.2,57,0.00,,,0.00,WUHU21623XXSP,2013-04-14 04:23:00,
2013-04-14 01:23:00,35.4,23.6,29.94,West,270,6.5,6.5,62,0.00,,,0.00,WUHU21623XXSP,2013-04-14 05:23:00,
2013-04-14 02:23:00,36.5,22.3,29.94,SW,225,3.4,3.4,56,0.00,,,0.00,WUHU21623XXSP,2013-04-14 06:23:00,
2013-04-14 03:23:00,35.2,19.3,29.95,NW,315,0.0,0.0,52,0.00,,,0.00,WUHU21623XXSP,2013-04-14 07:23:00,
2013-04-14 04:23:00,33.8,17.2,29.97,NW,315,0.0,0.0,50,0.00,,,0.00,WUHU21623XXSP,2013-04-14 08:23:00,
2013-04-14 05:23:00,31.6,15.9,29.98,West,270,0.0,0.0,52,0.00,,,0.00,WUHU21623XXSP,2013-04-14 09:23:00,
2013-04-14 06:23:00,29.1,15.7,29.99,WSW,248,0.0,0.0,57,0.00,,,0.00,WUHU21623XXSP,2013-04-14 10:23:00,
2013-04-14 07:23:00,30.0,16.9,30.01,SW,225,0.0,0.0,58,0.00,,,0.00,WUHU21623XXSP,2013-04-14 11:23:00,
2013-04-14 08:23:00,32.7,18.0,30.03,WSW,248,0.0,0.0,54,0.00,,,0.00,WUHU21623XXSP,2013-04-14 12:23:00,
2013-04-14 09:23:00,37.8,19.8,30.04,West,270,0.0,0.0,48,0.00,,,0.00,WUHU21623XXSP,2013-04-14 13:23:00,
2013-04-14 10:23:00,41.0,20.6,30.09,WSW,248,8.7,8.7,44,0.00,,,0.00,WUHU21623XXSP,2013-04-14 14:23:00,
2013-04-14 11:23:00,53.4,25.2,30.07,WSW,248,6.3,6.3,34,0.00,,,0.00,WUHU21623XXSP,2013-04-14 15:23:00,
2013-04-14 12:23:00,60.4,27.6,30.05,West,270,11.4,11.4,29,0.00,,,0.00,WUHU21623XXSP,2013-04-14 16:23:00,
2013-04-14 13:23:00,62.4,27.3,30.03,WSW,248,2.2,2.2,26,0.00,,,0.00,WUHU21623XXSP,2013-04-14 17:23:00,
2013-04-14 14:23:00,68.0,28.1,30.03,West,270,4.9,4.9,22,0.00,,,0.00,WUHU21623XXSP,2013-04-14 18:23:00,
2013-04-14 15:23:00,71.2,30.8,30.02,West,270,5.6,5.6,22,0.00,,,0.00,WUHU21623XXSP,2013-04-14 19:23:00,
2013-04-14 16:23:00,75.2,33.2,30.01,WSW,248,0.0,0.0,22,0.00,,,0.00,WUHU21623XXSP,2013-04-14 20:23:00,
2013-04-14 17:23:00,69.1,30.7,30.01,WSW,248,0.0,0.0,24,0.00,,,0.00,WUHU21623XXSP,2013-04-14 21:23:00,
2013-04-14 18:23:00,64.8,28.6,30.02,West,270,0.0,0.0,26,0.00,,,0.00,WUHU21623XXSP,2013-04-14 22:23:00,
2013-04-14 19:23:00,56.3,26.6,30.02,North,0,0.0,0.0,32,0.00,,,0.00,WUHU21623XXSP,2013-04-14 23:23:00,
2013-04-14 20:23:00,50.2,25.6,30.02,NNE,23,0.0,0.0,38,0.00,,,0.00,WUHU21623XXSP,2013-04-15 00:23:00,
2013-04-14 21:23:00,50.5,25.9,30.03,WNW,293,0.0,0.0,38,0.00,,,0.00,WUHU21623XXSP,2013-04-15 01:23:00,
2013-04-14 22:23:00,50.5,26.4,30.03,SE,135,0.0,0.0,39,0.00,,,0.00,WUHU21623XXSP,2013-04-15 02:23:00,
2013-04-14 23:23:00,50.7,26.1,30.01,North,0,0.0,0.0,38,0.00,,,0.00,WUHU21623XXSP,2013-04-15 03:23:00,